| time (UTC) | temp F | wind direction | speed knots | gust knots | rain 1hr in | rain 24hr in | rain mn in | humidity % | barometer mb |
| 20260505041746 | 72 | 153 | 0.9 | 1.7 | 0.00 | 0.00 | 0.00 | 80 | 1009.0 |
| 20260505041243 | 72 | 185 | 0.0 | 0.0 | 0.00 | 0.00 | 0.00 | 80 | 1009.2 |
| 20260505040741 | 72 | 164 | 0.0 | 0.0 | 0.00 | 0.00 | 0.00 | 79 | 1009.0 |
| 20260505040238 | 72 | 161 | 0.0 | 0.0 | 0.00 | 0.00 | 0.00 | 79 | 1009.2 |
| 20260505035735 | 73 | 153 | 0.0 | 0.0 | 0.00 | 0.00 | 0.00 | 79 | 1009.3 |
| 20260505035231 | 73 | 156 | 0.9 | 1.7 | 0.00 | 0.00 | 0.00 | 79 | 1009.1 |
| 20260505034728 | 73 | 153 | 0.0 | 0.0 | 0.00 | 0.00 | 0.00 | 79 | 1009.4 |
| 20260505034224 | 73 | 49 | 0.0 | 0.0 | 0.00 | 0.00 | 0.00 | 78 | 1009.3 |
| 20260505033721 | 73 | 153 | 0.0 | 0.0 | 0.00 | 0.00 | 0.00 | 78 | 1009.2 |
| 20260505033219 | 73 | 152 | 0.0 | 0.0 | 0.00 | 0.00 | 0.00 | 78 | 1009.3 |
| 20260505032717 | 74 | 196 | 0.0 | 0.9 | 0.00 | 0.00 | 0.00 | 77 | 1009.2 |
| 20260505032212 | 74 | 188 | 0.9 | 0.9 | 0.00 | 0.00 | 0.00 | 77 | 1009.3 |
| 20260505031710 | 74 | 117 | 0.9 | 1.7 | 0.00 | 0.00 | 0.00 | 77 | 1009.5 |
| 20260505031206 | 74 | 169 | 2.6 | 4.3 | 0.00 | 0.00 | 0.00 | 77 | 1009.3 |
| 20260505030703 | 74 | 157 | 0.0 | 0.9 | 0.00 | 0.00 | 0.00 | 77 | 1009.2 |
| 20260505030159 | 74 | 162 | 0.0 | 0.0 | 0.00 | 0.00 | 0.00 | 76 | 1009.3 |
| 20260505025655 | 74 | 187 | 0.0 | 0.0 | 0.00 | 0.00 | 0.00 | 76 | 1009.5 |
| 20260505025154 | 74 | 158 | 2.6 | 5.2 | 0.00 | 0.00 | 0.00 | 76 | 1009.3 |
| 20260505024651 | 74 | 117 | 4.3 | 7.0 | 0.00 | 0.00 | 0.00 | 76 | 1009.1 |
| 20260505024148 | 74 | 153 | 0.0 | 0.0 | 0.00 | 0.00 | 0.00 | 76 | 1009.1 |
| 20260505023646 | 74 | 149 | 0.0 | 0.9 | 0.00 | 0.00 | 0.00 | 76 | 1009.1 |
| 20260505023143 | 75 | 170 | 0.0 | 0.0 | 0.00 | 0.00 | 0.00 | 76 | 1009.1 |
| 20260505022640 | 75 | 162 | 0.0 | 0.0 | 0.00 | 0.00 | 0.00 | 76 | 1009.0 |
| 20260505022137 | 75 | 168 | 0.9 | 1.7 | 0.00 | 0.00 | 0.00 | 76 | 1009.0 |
| 20260505021634 | 75 | 142 | 0.0 | 0.0 | 0.00 | 0.00 | 0.00 | 76 | 1009.3 |
| 20260505021131 | 75 | 125 | 0.0 | 0.9 | 0.00 | 0.00 | 0.00 | 76 | 1009.0 |
| 20260505020626 | 75 | 147 | 0.9 | 0.9 | 0.00 | 0.00 | 0.00 | 75 | 1009.2 |
| 20260505020122 | 75 | 151 | 0.0 | 0.0 | 0.00 | 0.00 | 0.00 | 75 | 1009.0 |
| 20260505015620 | 75 | 161 | 0.0 | 0.0 | 0.00 | 0.00 | 0.00 | 75 | 1009.0 |
| 20260505015116 | 75 | 176 | 0.9 | 1.7 | 0.00 | 0.00 | 0.00 | 75 | 1009.0 |
| 20260505014613 | 75 | 280 | 0.9 | 1.7 | 0.00 | 0.00 | 0.00 | 75 | 1008.8 |
| 20260505014110 | 75 | 187 | 0.9 | 0.9 | 0.00 | 0.00 | 0.00 | 74 | 1008.9 |
| 20260505013608 | 76 | 151 | 0.0 | 0.0 | 0.00 | 0.00 | 0.00 | 74 | 1008.7 |
| 20260505013104 | 76 | 240 | 0.9 | 0.9 | 0.00 | 0.00 | 0.00 | 73 | 1008.8 |
| 20260505012603 | 76 | 149 | 0.9 | 1.7 | 0.00 | 0.00 | 0.00 | 73 | 1008.5 |
| 20260505012059 | 76 | 98 | 0.0 | 0.0 | 0.00 | 0.00 | 0.00 | 73 | 1008.5 |
| 20260505011554 | 76 | 149 | 0.9 | 1.7 | 0.00 | 0.00 | 0.00 | 73 | 1008.5 |
| 20260505011052 | 77 | 152 | 0.0 | 0.9 | 0.00 | 0.00 | 0.00 | 72 | 1008.6 |
| 20260505010547 | 77 | 172 | 0.0 | 0.0 | 0.00 | 0.00 | 0.00 | 72 | 1008.5 |
| 20260505010044 | 77 | 163 | 0.0 | 0.9 | 0.00 | 0.00 | 0.00 | 72 | 1008.6 |
| 20260505005540 | 77 | 156 | 0.0 | 0.9 | 0.00 | 0.00 | 0.00 | 72 | 1008.5 |
| 20260505005038 | 77 | 168 | 0.9 | 0.9 | 0.00 | 0.00 | 0.00 | 71 | 1008.9 |
| 20260505004535 | 77 | 178 | 0.0 | 0.0 | 0.00 | 0.00 | 0.00 | 71 | 1008.8 |
| 20260505004032 | 77 | 227 | 1.7 | 1.7 | 0.00 | 0.00 | 0.00 | 71 | 1008.7 |
| 20260505003529 | 77 | 217 | 0.0 | 0.0 | 0.00 | 0.00 | 0.00 | 70 | 1008.7 |
| 20260505003026 | 78 | 212 | 0.0 | 0.9 | 0.00 | 0.00 | 0.00 | 70 | 1008.6 |
| 20260505002521 | 78 | 193 | 2.6 | 2.6 | 0.00 | 0.00 | 0.00 | 70 | 1008.6 |
| 20260505002020 | 78 | 137 | 0.0 | 0.0 | 0.00 | 0.00 | 0.00 | 69 | 1008.6 |
| 20260505001517 | 78 | 151 | 0.9 | 4.3 | 0.00 | 0.00 | 0.00 | 69 | 1008.6 |
| 20260505001014 | 78 | 162 | 0.9 | 2.6 | 0.00 | 0.00 | 0.00 | 69 | 1008.7 |
| 20260505000512 | 78 | 158 | 0.0 | 0.9 | 0.00 | 0.00 | 0.00 | 68 | 1008.8 |
| 20260505000009 | 78 | 140 | 1.7 | 1.7 | 0.00 | 0.00 | 0.00 | 68 | 1008.8 |
| 20260504235506 | 79 | 169 | 2.6 | 6.1 | 0.00 | 0.00 | 0.00 | 66 | 1008.6 |
| 20260504235002 | 80 | 153 | 0.0 | 0.0 | 0.00 | 0.00 | 0.00 | 67 | 1008.6 |
| 20260504234459 | 80 | 172 | 0.9 | 0.9 | 0.00 | 0.00 | 0.00 | 66 | 1008.8 |
| 20260504233956 | 80 | 159 | 0.0 | 0.9 | 0.00 | 0.00 | 0.00 | 66 | 1008.7 |
| 20260504233451 | 80 | 204 | 0.0 | 0.0 | 0.00 | 0.00 | 0.00 | 66 | 1008.7 |
| 20260504232949 | 80 | 261 | 1.7 | 1.7 | 0.00 | 0.00 | 0.00 | 66 | 1008.8 |
| 20260504232446 | 80 | 297 | 0.0 | 1.7 | 0.00 | 0.00 | 0.00 | 65 | 1008.9 |
| 20260504231943 | 80 | 227 | 0.9 | 0.9 | 0.00 | 0.00 | 0.00 | 65 | 1008.8 |
| 20260504231439 | 80 | 202 | 2.6 | 4.3 | 0.00 | 0.00 | 0.00 | 64 | 1009.0 |
| 20260504230935 | 81 | 203 | 2.6 | 4.3 | 0.00 | 0.00 | 0.00 | 64 | 1009.0 |
| 20260504230432 | 81 | 146 | 0.0 | 0.9 | 0.00 | 0.00 | 0.00 | 64 | 1009.2 |
| 20260504225932 | 81 | 156 | 0.9 | 1.7 | 0.00 | 0.00 | 0.00 | 63 | 1009.3 |
| 20260504225428 | 80 | 173 | 0.0 | 1.7 | 0.00 | 0.00 | 0.00 | 63 | 1009.1 |
| 20260504224925 | 81 | 242 | 0.9 | 2.6 | 0.00 | 0.00 | 0.00 | 64 | 1009.3 |
| 20260504224422 | 82 | 195 | 0.9 | 2.6 | 0.00 | 0.00 | 0.00 | 63 | 1009.2 |
| 20260504223919 | 81 | 153 | 0.0 | 0.0 | 0.00 | 0.00 | 0.00 | 63 | 1009.2 |
| 20260504223414 | 81 | 249 | 1.7 | 1.7 | 0.00 | 0.00 | 0.00 | 62 | 1009.3 |
| 20260504222910 | 81 | 258 | 0.9 | 2.6 | 0.00 | 0.00 | 0.00 | 61 | 1009.4 |
| 20260504222408 | 80 | 201 | 2.6 | 2.6 | 0.00 | 0.00 | 0.00 | 63 | 1009.6 |
| 20260504221906 | 81 | 138 | 0.0 | 0.0 | 0.00 | 0.00 | 0.00 | 62 | 1009.4 |
| 20260504221402 | 81 | 214 | 2.6 | 2.6 | 0.00 | 0.00 | 0.00 | 61 | 1009.6 |
| 20260504220900 | 81 | 245 | 0.0 | 0.9 | 0.00 | 0.00 | 0.00 | 62 | 1009.4 |
| 20260504220356 | 81 | 167 | 0.0 | 0.0 | 0.00 | 0.00 | 0.00 | 61 | 1009.7 |
| 20260504215853 | 81 | 170 | 1.7 | 1.7 | 0.00 | 0.00 | 0.00 | 61 | 1009.8 |
| 20260504215349 | 81 | 156 | 0.0 | 0.0 | 0.00 | 0.00 | 0.00 | 62 | 1009.7 |
| 20260504214846 | 81 | 196 | 0.0 | 0.0 | 0.00 | 0.00 | 0.00 | 61 | 1009.7 |
| 20260504214343 | 82 | 154 | 2.6 | 4.3 | 0.00 | 0.00 | 0.00 | 60 | 1009.8 |
| 20260504213839 | 81 | 153 | 1.7 | 4.3 | 0.00 | 0.00 | 0.00 | 61 | 1010.0 |
| 20260504213335 | 82 | 169 | 1.7 | 2.6 | 0.00 | 0.00 | 0.00 | 60 | 1010.1 |
| 20260504212833 | 83 | 162 | 0.0 | 0.0 | 0.00 | 0.00 | 0.00 | 58 | 1010.0 |
| 20260504212329 | 83 | 169 | 0.0 | 0.0 | 0.00 | 0.00 | 0.00 | 57 | 1010.0 |
| 20260504211827 | 83 | 158 | 0.0 | 0.0 | 0.00 | 0.00 | 0.00 | 59 | 1010.2 |
| 20260504211322 | 82 | 169 | 0.0 | 0.0 | 0.00 | 0.00 | 0.00 | 59 | 1010.2 |
| 20260504210820 | 84 | 205 | 1.7 | 2.6 | 0.00 | 0.00 | 0.00 | 58 | 1010.4 |
| 20260504210317 | 84 | 241 | 0.9 | 1.7 | 0.00 | 0.00 | 0.00 | 58 | 1010.5 |
| 20260504205814 | 83 | 153 | 2.6 | 4.3 | 0.00 | 0.00 | 0.00 | 59 | 1010.6 |
| 20260504205312 | 82 | 174 | 0.9 | 0.9 | 0.00 | 0.00 | 0.00 | 59 | 1010.6 |
| 20260504204810 | 82 | 175 | 0.0 | 0.9 | 0.00 | 0.00 | 0.00 | 59 | 1010.7 |
| 20260504204308 | 82 | 265 | 0.0 | 1.7 | 0.00 | 0.00 | 0.00 | 58 | 1010.8 |
| 20260504203807 | 83 | 153 | 2.6 | 2.6 | 0.00 | 0.00 | 0.00 | 57 | 1010.8 |
| 20260504203304 | 84 | 256 | 0.9 | 1.7 | 0.00 | 0.00 | 0.00 | 56 | 1011.1 |
| 20260504202758 | 82 | 160 | 0.9 | 1.7 | 0.00 | 0.00 | 0.00 | 58 | 1011.1 |
| 20260504202256 | 84 | 166 | 0.0 | 0.9 | 0.00 | 0.00 | 0.00 | 57 | 1011.2 |
| 20260504201753 | 81 | 171 | 1.7 | 1.7 | 0.00 | 0.00 | 0.00 | 57 | 1011.4 |
| 20260504201250 | 81 | 203 | 0.0 | 0.0 | 0.00 | 0.00 | 0.00 | 60 | 1011.4 |
| 20260504200748 | 82 | 136 | 3.5 | 5.2 | 0.00 | 0.00 | 0.00 | 58 | 1011.6 |
| 20260504200243 | 82 | 182 | 2.6 | 2.6 | 0.00 | 0.00 | 0.00 | 56 | 1011.4 |
| 20260504195740 | 80 | 199 | 0.9 | 1.7 | 0.00 | 0.00 | 0.00 | 58 | 1011.5 |
| 20260504195236 | 80 | 177 | 0.0 | 0.0 | 0.00 | 0.00 | 0.00 | 58 | 1011.7 |
| 20260504194733 | 81 | 179 | 0.0 | 0.9 | 0.00 | 0.00 | 0.00 | 58 | 1011.7 |
| 20260504194229 | 82 | 249 | 3.5 | 6.1 | 0.00 | 0.00 | 0.00 | 57 | 1011.7 |
| 20260504193726 | 80 | 146 | 0.9 | 0.9 | 0.00 | 0.00 | 0.00 | 59 | 1011.7 |
| 20260504193224 | 81 | 195 | 2.6 | 4.3 | 0.00 | 0.00 | 0.00 | 58 | 1011.8 |
| 20260504192722 | 82 | 147 | 0.9 | 0.9 | 0.00 | 0.00 | 0.00 | 57 | 1012.3 |
| 20260504192219 | 82 | 167 | 0.0 | 0.0 | 0.00 | 0.00 | 0.00 | 58 | 1012.3 |
| 20260504191718 | 83 | 69 | 0.9 | 1.7 | 0.00 | 0.00 | 0.00 | 56 | 1012.3 |
| 20260504191214 | 82 | 219 | 0.0 | 0.9 | 0.00 | 0.00 | 0.00 | 58 | 1012.3 |
| 20260504190710 | 84 | 198 | 1.7 | 1.7 | 0.00 | 0.00 | 0.00 | 56 | 1012.3 |
| 20260504190206 | 83 | 171 | 2.6 | 5.2 | 0.00 | 0.00 | 0.00 | 56 | 1012.6 |
| 20260504185703 | 82 | 174 | 0.0 | 0.0 | 0.00 | 0.00 | 0.00 | 57 | 1012.6 |
| 20260504185159 | 82 | 135 | 0.9 | 1.7 | 0.00 | 0.00 | 0.00 | 57 | 1012.9 |
| 20260504184655 | 83 | 199 | 1.7 | 1.7 | 0.00 | 0.00 | 0.00 | 55 | 1013.0 |
| 20260504184151 | 82 | 199 | 0.0 | 0.0 | 0.00 | 0.00 | 0.00 | 56 | 1012.9 |
| 20260504183648 | 82 | 150 | 0.0 | 0.9 | 0.00 | 0.00 | 0.00 | 56 | 1012.8 |
| 20260504183145 | 82 | 227 | 0.9 | 0.9 | 0.00 | 0.00 | 0.00 | 56 | 1012.6 |
| 20260504182643 | 81 | 175 | 0.0 | 0.0 | 0.00 | 0.00 | 0.00 | 57 | 1013.2 |
| 20260504182140 | 82 | 177 | 1.7 | 1.7 | 0.00 | 0.00 | 0.00 | 54 | 1013.0 |
| 20260504181637 | 81 | 169 | 0.0 | 0.0 | 0.00 | 0.00 | 0.00 | 56 | 1013.1 |
| 20260504181135 | 82 | 251 | 2.6 | 2.6 | 0.00 | 0.00 | 0.00 | 54 | 1013.0 |
| 20260504180634 | 82 | 168 | 0.0 | 0.0 | 0.00 | 0.00 | 0.00 | 55 | 1013.0 |
| 20260504180132 | 82 | 181 | 0.0 | 0.9 | 0.00 | 0.00 | 0.00 | 55 | 1013.3 |
| 20260504175629 | 82 | 164 | 0.0 | 0.0 | 0.00 | 0.00 | 0.00 | 54 | 1013.2 |
| 20260504175125 | 82 | 151 | 0.9 | 0.9 | 0.00 | 0.00 | 0.00 | 55 | 1013.2 |
| 20260504174624 | 82 | 185 | 0.9 | 1.7 | 0.00 | 0.00 | 0.00 | 55 | 1013.3 |
| 20260504174120 | 80 | 166 | 0.9 | 1.7 | 0.00 | 0.00 | 0.00 | 58 | 1013.6 |
| 20260504173617 | 81 | 240 | 2.6 | 5.2 | 0.00 | 0.00 | 0.00 | 57 | 1013.5 |
| 20260504173115 | 82 | 172 | 0.9 | 1.7 | 0.00 | 0.00 | 0.00 | 56 | 1013.5 |
| 20260504172611 | 80 | 160 | 0.0 | 0.9 | 0.00 | 0.00 | 0.00 | 56 | 1013.9 |
| 20260504172108 | 81 | 171 | 3.5 | 5.2 | 0.00 | 0.00 | 0.00 | 56 | 1013.6 |
| 20260504171604 | 79 | 184 | 1.7 | 2.6 | 0.00 | 0.00 | 0.00 | 57 | 1013.9 |
| 20260504171102 | 78 | 203 | 2.6 | 2.6 | 0.00 | 0.00 | 0.00 | 59 | 1014.0 |
| 20260504170557 | 79 | 185 | 2.6 | 4.3 | 0.00 | 0.00 | 0.00 | 58 | 1013.8 |
| 20260504150941 | 74 | 82 | 2.6 | 4.3 | 0.00 | 0.00 | 0.00 | 65 | 1015.2 |
| 20260504150438 | 73 | 159 | 1.7 | 1.7 | 0.00 | 0.00 | 0.00 | 66 | 1015.1 |
| 20260504140904 | 70 | 261 | 2.6 | 5.2 | 0.00 | 0.00 | 0.00 | 68 | 1015.2 |
| 20260504140400 | 70 | 151 | 0.0 | 0.0 | 0.00 | 0.00 | 0.00 | 69 | 1015.0 |
| 20260504130325 | 66 | 138 | 0.9 | 2.6 | 0.00 | 0.00 | 0.00 | 73 | 1014.9 |
| 20260504120248 | 62 | 157 | 0.9 | 1.7 | 0.00 | 0.00 | 0.00 | 77 | 1014.7 |
| 20260504110716 | 63 | 152 | 0.9 | 1.7 | 0.00 | 0.00 | 0.00 | 74 | 1014.0 |
| 20260504110212 | 63 | 156 | 3.5 | 4.3 | 0.00 | 0.00 | 0.00 | 74 | 1014.2 |
| 20260504100131 | 62 | 141 | 0.0 | 0.0 | 0.00 | 0.00 | 0.00 | 76 | 1014.6 |
| 20260504081524 | 63 | 155 | 0.0 | 0.0 | 0.00 | 0.00 | 0.00 | 75 | 1015.3 |
| 20260504081019 | 63 | 151 | 0.0 | 0.0 | 0.00 | 0.00 | 0.00 | 75 | 1015.7 |
| 20260504080516 | 63 | 187 | 0.9 | 0.9 | 0.00 | 0.00 | 0.00 | 75 | 1015.5 |
| 20260504050328 | 65 | 154 | 0.0 | 0.0 | 0.00 | 0.00 | 0.00 | 70 | 1017.1 |